Wind_Speed
37 36 34 33 32 30 26 25 27 27 25 23 22 24 25 24 21 19 19 20 18 18 18 19 19 19 20 20 20 21 21 22 22 22 23 23 22 22 21 21 21 21 21 21 21 21 21 21 20
39 38 37 36 35 31 26 27 30 31 28 25 24 26 26 25 22 19 20 20 19 18 19 19 20 20 21 22 22 22 22 23 23 23 24 24 24 24 23 23 23 22 22 22 22 22 22 22 22
41 40 40 39 36 30 26 31 34 32 30 28 27 29 30 27 23 21 21 21 20 20 20 20 21 21 22 23 23 23 24 24 24 24 24 24 25 25 25 25 25 24 24 24 24 23 23 23 23
42 42 42 41 35 28 29 34 35 34 31 30 30 32 32 28 25 24 23 23 22 22 22 22 22 23 23 23 24 24 24 24 24 24 25 25 25 26 26 26 26 26 25 25 25 25 24 24 24
44 44 43 40 33 28 31 35 36 34 32 30 31 33 33 30 27 26 25 25 25 25 24 24 24 24 24 24 24 24 24 25 25 25 25 25 26 26 26 27 27 26 26 26 26 26 25 25 24
46 45 44 39 31 30 32 35 36 34 31 29 30 32 33 30 28 27 27 27 27 27 26 26 26 26 25 25 24 24 24 24 25 25 25 25 25 25 26 26 27 27 26 26 26 26 26 25 25
46 45 43 37 32 32 31 35 36 34 31 29 29 31 31 29 26 26 26 27 28 27 26 26 27 27 26 26 25 25 24 24 24 24 24 24 24 24 25 25 26 26 26 26 26 26 26 25 25
46 45 43 38 34 32 32 35 36 35 32 30 31 30 29 27 25 24 24 25 26 26 26 27 27 27 27 26 25 25 25 24 23 23 23 23 23 23 23 24 24 25 25 25 25 25 25 25 25
46 46 44 38 34 32 34 36 37 36 34 32 31 29 28 27 24 22 22 23 24 25 26 27 27 27 27 27 26 26 25 25 24 24 23 23 23 22 23 23 23 24 24 24 25 25 25 25 25
47 47 43 38 35 34 37 38 38 38 36 33 31 28 28 27 24 23 22 23 23 25 26 27 28 28 28 27 27 27 27 26 25 25 24 24 24 23 23 23 23 23 24 24 25 25 26 26 27
47 47 43 39 37 37 39 39 40 40 38 34 30 28 28 27 25 23 23 23 24 26 27 27 27 27 27 28 28 28 28 27 27 26 26 25 25 24 23 23 23 23 24 24 25 25 26 27 27
48 47 44 40 41 41 41 41 41 41 39 35 30 29 29 28 25 23 23 24 25 26 26 27 27 27 27 28 28 29 29 28 28 27 26 26 26 25 25 24 24 24 24 24 24 25 26 27 28
49 48 46 43 43 43 42 42 42 41 39 36 32 31 32 30 27 25 24 25 26 26 26 26 27 27 27 28 28 29 29 29 29 28 27 27 27 27 26 25 25 25 25 25 26 26 26 27 28
51 50 48 46 45 44 42 41 41 40 40 38 35 34 34 32 28 26 26 26 27 26 27 27 27 27 28 28 29 29 30 30 30 29 29 28 28 28 27 26 26 26 26 27 27 27 27 28 29
51 50 48 46 45 45 44 42 41 40 41 40 37 36 35 33 30 27 26 28 28 28 28 28 28 28 28 29 30 31 31 31 30 30 30 29 29 29 29 28 27 27 28 28 28 28 29 30 30
50 50 48 46 46 46 45 42 40 42 43 41 38 36 35 33 31 29 28 29 30 30 30 30 30 30 30 31 32 32 33 32 31 31 31 31 31 30 30 30 29 29 29 29 29 29 30 31 32
49 48 47 46 46 46 46 42 40 43 43 41 39 37 35 34 32 30 30 30 31 32 32 32 32 32 32 33 34 34 34 33 33 33 32 32 32 32 31 31 31 31 30 30 30 30 31 31 32
45 46 45 45 46 46 45 43 40 42 42 41 39 38 36 35 33 32 32 32 33 33 33 33 33 32 33 34 34 34 34 34 34 34 34 34 33 33 33 33 32 32 32 31 31 32 31 32 33
42 43 44 44 45 45 45 43 40 41 42 40 39 38 37 35 35 35 34 34 34 34 33 33 33 33 34 35 35 35 36 36 37 37 37 36 35 34 34 34 33 33 33 33 33 33 33 33 33
40 40 41 42 44 44 44 43 40 40 41 40 40 38 37 37 36 36 35 35 35 35 35 35 35 35 36 37 37 39 40 40 40 39 39 38 37 37 36 36 35 35 34 34 34 34 34 34 35
37 37 38 39 40 41 42 41 39 39 40 40 39 38 38 37 37 37 37 37 37 37 37 38 38 39 39 40 41 41 42 42 41 40 39 39 39 39 39 38 37 36 36 35 35 35 35 35 36
33 33 34 35 37 38 39 38 35 36 37 37 37 37 37 38 38 38 39 39 39 39 40 41 42 43 43 44 44 44 44 44 43 42 42 42 42 42 41 40 39 38 37 36 36 36 36 37 37
30 30 30 32 33 34 35 36 31 32 33 34 34 36 37 38 39 39 40 40 41 42 43 44 45 46 47 48 48 48 47 47 46 46 45 44 44 44 43 42 41 40 39 38 38 37 37 38 39
27 27 27 28 29 30 29 32 29 28 30 31 33 34 36 37 39 40 41 42 44 45 47 48 49 50 51 52 52 52 52 50 49 49 48 47 47 46 45 45 43 42 41 40 40 39 39 39 40
25 25 25 25 26 25 25 27 26 26 28 29 31 34 36 38 40 42 43 45 46 48 49 51 52 53 54 54 54 54 54 53 52 51 51 50 48 47 47 46 45 44 43 42 41 40 40 41 41
23 24 24 23 23 22 23 24 24 25 26 28 31 34 36 39 41 43 45 47 48 50 52 53 53 54 54 54 54 55 54 54 53 52 51 50 49 48 48 47 46 45 44 43 42 41 41 42 43
23 22 21 21 21 21 22 22 23 24 26 29 31 34 36 39 41 43 45 47 49 50 52 53 54 54 55 55 54 54 54 53 53 52 52 51 50 49 49 48 47 46 45 44 43 42 43 43 45
21 21 21 20 20 20 20 20 22 24 27 29 31 33 35 38 40 42 44 45 47 49 51 52 53 54 54 54 54 54 53 53 52 52 52 51 50 50 49 48 47 46 45 44 43 43 43 44 45
20 20 20 19 20 20 20 19 22 24 26 28 30 32 33 35 36 38 41 43 46 48 50 52 53 53 53 53 52 52 52 51 50 49 50 50 50 50 49 47 46 45 44 44 43 43 44 45 46
20 19 19 20 19 19 19 19 21 23 25 27 29 30 31 33 35 37 39 42 44 46 48 50 51 52 52 52 51 50 50 49 48 46 46 48 48 48 47 46 45 44 43 42 42 43 43 45 47
Wind_Direction
225 226 226 226 226 224 222 223 227 228 227 227 230 233 235 239 243 248 253 255 256 257 257 258 260 263 265 268 269 270 270 269 268 267 266 266 267 269 270 271 271 271 270 269 268 267 267 268 270
226 227 228 229 228 226 223 227 230 230 228 228 230 233 235 237 241 243 248 253 257 259 259 260 262 263 265 267 269 272 272 272 271 269 268 267 266 267 268 270 270 269 268 267 266 266 267 268 270
228 229 230 231 230 227 226 230 233 233 231 229 230 235 238 238 241 243 247 253 257 258 258 260 262 263 264 267 270 272 274 274 274 272 271 269 268 268 268 269 269 268 268 267 265 265 266 267 269
230 231 232 232 231 227 227 232 235 234 232 231 232 237 241 242 242 244 247 250 253 255 257 258 261 263 265 267 270 273 274 276 276 276 275 273 272 270 269 269 269 269 269 268 267 266 265 266 269
230 232 233 233 230 225 226 232 236 236 235 233 235 239 241 242 241 243 246 250 252 255 257 258 260 263 266 269 272 274 275 277 278 278 279 278 276 273 272 271 270 270 270 270 269 268 267 268 269
231 232 234 233 228 222 222 229 235 235 235 233 234 237 240 241 241 244 246 249 253 255 258 260 261 263 266 268 271 273 275 278 279 280 281 280 278 276 275 273 272 271 272 272 271 270 269 269 270
230 231 233 230 222 218 218 226 234 235 232 230 232 236 238 240 241 243 246 249 253 256 258 260 262 263 265 267 269 272 274 276 279 280 281 281 279 278 277 275 274 273 272 272 272 271 270 269 269
228 229 230 226 220 215 216 225 233 236 234 230 229 234 239 241 241 241 244 248 252 256 257 259 261 262 264 266 268 271 273 275 278 280 282 282 281 280 279 277 276 275 274 274 273 272 271 270 269
226 228 228 224 219 213 218 225 232 237 238 235 233 234 238 242 242 241 242 245 249 253 255 257 259 261 263 265 267 270 272 274 277 279 281 281 282 281 281 280 279 278 277 276 275 273 271 270 270
225 228 227 224 220 215 220 226 231 236 239 240 239 239 240 243 243 242 242 243 246 249 252 254 257 260 263 264 266 268 270 273 275 277 279 280 281 281 281 281 281 281 279 278 277 275 274 272 271
226 228 227 224 222 219 221 226 231 235 239 239 241 243 244 244 243 243 244 245 247 249 252 255 257 260 262 264 266 268 270 271 273 275 277 278 279 280 281 281 282 282 281 280 279 278 277 276 274
226 227 227 225 225 222 221 225 230 235 240 242 242 244 246 246 246 245 246 247 247 249 252 255 257 259 261 263 265 267 269 270 272 274 276 277 278 279 281 281 281 281 281 281 280 280 279 278 278
226 228 228 227 228 227 225 225 231 236 240 243 242 243 246 245 244 244 245 246 247 249 251 254 256 258 260 262 265 267 269 270 271 273 274 276 277 278 280 282 282 281 280 280 281 280 280 281 281
226 228 228 228 229 231 230 228 231 236 241 242 242 242 245 247 245 244 245 247 249 250 250 250 252 255 257 260 263 265 268 270 271 272 272 273 275 277 278 280 281 280 280 280 281 281 282 282 282
227 228 229 229 231 233 234 230 231 235 239 241 241 242 244 246 246 245 245 247 249 251 251 251 251 252 255 258 261 263 265 267 270 271 271 272 273 274 275 277 278 279 280 280 281 282 283 283 283
227 229 230 230 232 233 234 230 231 234 237 239 240 242 244 247 247 246 244 245 247 249 251 252 253 253 254 255 258 261 263 265 268 269 271 271 272 273 274 275 276 278 278 280 281 283 283 284 284
226 228 230 230 232 233 234 232 231 234 236 238 240 241 244 246 247 246 244 244 245 247 249 251 253 255 255 255 256 259 261 264 266 268 269 270 270 271 272 273 274 276 278 280 282 284 284 286 287
227 229 230 231 232 233 234 234 232 235 237 238 240 242 244 245 247 245 243 242 243 245 248 250 253 255 256 257 258 260 261 263 264 265 267 268 269 270 271 272 273 275 277 279 282 284 286 287 288
227 228 230 231 232 234 235 236 235 235 237 239 240 242 243 244 244 244 244 244 245 247 249 251 253 255 256 258 260 261 261 261 261 263 264 266 268 269 270 271 272 274 276 278 281 283 285 287 289
227 229 231 232 233 235 236 237 236 236 237 239 240 241 241 242 243 245 245 246 247 249 251 252 254 255 257 258 259 260 260 261 262 264 265 266 267 267 268 269 271 272 275 277 280 282 284 286 288
228 229 231 233 234 235 236 236 237 237 238 239 241 241 241 242 243 244 246 247 249 250 252 254 255 256 257 258 259 260 261 263 263 264 265 264 264 265 266 268 269 272 274 276 279 281 284 286 287
226 227 229 231 233 235 236 236 235 238 239 240 241 242 243 244 245 246 248 250 251 253 254 255 257 258 259 260 260 261 261 263 263 262 261 261 262 263 265 267 269 271 272 275 277 280 283 285 287
223 224 226 229 232 234 236 238 231 236 239 240 241 244 245 246 248 250 252 254 256 257 258 259 260 260 261 261 262 261 261 261 261 261 261 261 261 262 263 265 267 269 271 273 276 279 283 285 287
217 220 222 225 228 231 233 238 235 234 237 240 243 245 248 250 252 255 257 259 260 261 262 262 262 263 263 262 262 262 261 260 259 259 259 259 260 260 261 263 265 267 270 272 275 278 281 284 286
212 215 218 221 225 228 229 237 239 238 239 242 245 248 251 253 256 258 260 262 264 264 265 264 264 263 263 262 261 261 260 259 258 257 256 256 257 259 260 261 264 266 269 272 274 277 280 283 285
207 211 215 218 222 225 227 234 241 245 247 249 252 254 256 259 261 263 265 266 266 266 266 265 264 263 262 261 260 259 258 257 255 254 254 254 254 256 257 259 262 265 268 271 273 276 279 282 285
204 209 213 219 222 226 230 236 245 252 257 259 260 262 264 266 267 269 270 270 269 268 267 266 265 263 261 259 258 256 256 255 254 253 252 252 252 253 255 257 260 263 266 270 273 276 279 282 286
206 210 215 221 227 232 236 245 255 260 265 267 269 271 271 272 273 274 273 272 272 271 270 268 266 264 261 258 255 254 253 252 251 251 250 249 249 250 253 254 258 261 265 269 272 275 278 283 285
210 216 222 229 236 243 249 256 262 267 270 272 274 275 275 276 276 276 276 276 276 276 274 272 269 265 261 258 254 251 250 249 248 248 247 247 246 248 250 253 257 260 264 268 272 275 279 282 286
217 224 232 240 246 253 260 268 270 272 273 275 275 277 278 280 281 282 282 282 282 280 278 276 272 266 261 255 251 247 246 245 244 244 244 244 245 246 248 252 256 260 264 268 272 276 280 283 286
Height
5814 5817 5821 5825 5829 5834 5838 5841 5841 5843 5845 5849 5850 5851 5851 5852 5856 5861 5860 5858 5860 5861 5862 5862 5863 5864 5864 5864 5865 5865 5866 5866 5866 5866 5867 5867 5867 5867 5867 5867 5867 5867 5867 5866 5866 5866 5865 5865 5865
5808 5812 5816 5819 5823 5828 5834 5835 5835 5837 5841 5844 5846 5846 5846 5849 5852 5855 5855 5855 5857 5858 5859 5860 5860 5861 5861 5861 5862 5862 5862 5863 5863 5863 5863 5863 5863 5863 5864 5864 5864 5864 5863 5863 5863 5862 5862 5862 5862
5802 5805 5810 5813 5817 5825 5830 5829 5829 5832 5837 5840 5841 5841 5841 5846 5849 5851 5852 5852 5854 5855 5856 5857 5857 5857 5858 5858 5858 5859 5859 5859 5859 5860 5860 5860 5860 5860 5860 5860 5860 5860 5860 5860 5859 5859 5859 5858 5858
5795 5799 5803 5808 5814 5821 5823 5822 5823 5827 5831 5835 5837 5836 5838 5842 5845 5847 5848 5849 5850 5852 5853 5853 5854 5854 5855 5855 5855 5856 5856 5856 5856 5856 5856 5856 5856 5856 5856 5856 5856 5856 5856 5856 5855 5855 5855 5854 5854
5788 5792 5796 5801 5810 5816 5816 5815 5817 5821 5826 5830 5832 5832 5833 5838 5840 5842 5843 5845 5846 5848 5849 5850 5850 5851 5851 5852 5852 5853 5853 5853 5853 5853 5853 5852 5852 5852 5852 5852 5852 5852 5851 5851 5851 5851 5850 5850 5850
5781 5786 5791 5797 5805 5809 5810 5810 5811 5816 5820 5824 5826 5827 5829 5833 5836 5838 5839 5840 5841 5843 5844 5845 5846 5847 5848 5848 5849 5849 5849 5849 5849 5849 5849 5849 5849 5848 5848 5848 5848 5847 5847 5847 5847 5846 5846 5846 5846
5775 5779 5784 5792 5798 5801 5805 5804 5805 5809 5814 5818 5820 5821 5824 5828 5832 5834 5835 5836 5837 5838 5840 5841 5842 5843 5844 5844 5845 5845 5846 5846 5846 5845 5845 5845 5845 5844 5844 5844 5843 5843 5843 5842 5842 5842 5841 5841 5841
5767 5773 5777 5784 5791 5797 5799 5798 5800 5803 5808 5811 5814 5816 5819 5823 5826 5829 5830 5831 5833 5834 5835 5836 5837 5838 5839 5840 5841 5841 5841 5842 5842 5842 5841 5841 5841 5840 5840 5839 5839 5839 5838 5838 5837 5837 5837 5837 5836
5760 5766 5771 5779 5786 5791 5792 5793 5795 5798 5802 5805 5809 5812 5815 5817 5820 5823 5825 5827 5828 5829 5830 5831 5832 5833 5834 5835 5836 5836 5837 5837 5837 5837 5837 5837 5837 5836 5836 5835 5835 5835 5834 5833 5833 5833 5832 5832 5832
5752 5758 5766 5774 5779 5784 5785 5787 5789 5792 5795 5799 5803 5807 5810 5812 5815 5817 5819 5821 5823 5824 5824 5826 5827 5828 5829 5830 5831 5832 5832 5833 5833 5833 5833 5833 5833 5832 5832 5831 5831 5830 5830 5829 5829 5828 5827 5827 5827
5745 5752 5760 5766 5771 5775 5779 5781 5784 5786 5789 5794 5798 5801 5804 5806 5809 5812 5814 5816 5817 5818 5819 5821 5822 5823 5824 5825 5826 5826 5827 5828 5828 5828 5829 5828 5828 5828 5828 5827 5827 5826 5825 5825 5824 5823 5823 5822 5821
5739 5744 5751 5758 5762 5767 5771 5775 5777 5780 5784 5789 5793 5795 5797 5800 5804 5807 5809 5810 5812 5813 5814 5815 5816 5818 5819 5820 5820 5821 5822 5822 5823 5823 5824 5824 5823 5823 5823 5822 5822 5821 5821 5820 5819 5819 5818 5817 5816
5731 5737 5744 5750 5754 5759 5765 5769 5771 5775 5778 5782 5786 5788 5790 5793 5797 5800 5802 5804 5806 5808 5809 5810 5811 5812 5813 5814 5815 5815 5816 5817 5817 5818 5818 5818 5818 5818 5818 5817 5817 5816 5816 5815 5814 5813 5812 5811 5810
5723 5728 5735 5742 5747 5752 5757 5763 5766 5770 5772 5776 5779 5782 5783 5786 5790 5793 5795 5797 5799 5801 5803 5804 5805 5806 5807 5808 5809 5809 5810 5810 5811 5812 5812 5813 5813 5812 5812 5812 5811 5811 5810 5809 5808 5807 5807 5805 5804
5715 5721 5728 5735 5740 5744 5750 5756 5761 5764 5765 5768 5771 5775 5777 5780 5783 5787 5789 5791 5792 5794 5795 5797 5799 5800 5801 5802 5803 5803 5804 5804 5805 5805 5806 5806 5806 5806 5806 5806 5806 5805 5804 5803 5802 5801 5800 5799 5798
5708 5714 5720 5728 5732 5736 5742 5749 5754 5756 5757 5761 5764 5768 5771 5773 5777 5780 5783 5784 5785 5787 5788 5790 5791 5793 5795 5796 5796 5797 5797 5798 5798 5799 5799 5799 5800 5800 5800 5800 5799 5798 5798 5797 5796 5795 5793 5792 5790
5700 5707 5713 5720 5724 5728 5733 5740 5747 5747 5750 5754 5758 5761 5764 5767 5770 5773 5776 5777 5778 5779 5781 5782 5784 5785 5787 5788 5789 5789 5790 5791 5792 5792 5792 5793 5793 5793 5793 5793 5793 5792 5791 5790 5789 5788 5786 5785 5783
5695 5700 5706 5711 5716 5721 5726 5732 5738 5740 5744 5748 5751 5754 5757 5760 5763 5765 5767 5769 5770 5772 5773 5775 5776 5777 5779 5780 5781 5782 5783 5784 5785 5785 5785 5785 5786 5786 5786 5786 5785 5785 5784 5783 5782 5781 5779 5778 5776
5687 5692 5698 5704 5709 5714 5719 5724 5730 5734 5737 5740 5744 5747 5750 5752 5754 5756 5758 5760 5762 5764 5766 5767 5769 5770 5771 5772 5773 5774 5775 5775 5776 5776 5777 5777 5778 5778 5778 5778 5778 5777 5777 5776 5775 5773 5772 5770 5768
5680 5686 5692 5697 5702 5707 5712 5717 5723 5726 5729 5732 5736 5739 5742 5744 5746 5749 5750 5752 5754 5756 5757 5759 5760 5762 5763 5764 5764 5765 5765 5766 5767 5768 5769 5770 5770 5770 5770 5770 5770 5769 5769 5768 5767 5766 5764 5763 5761
5675 5681 5686 5691 5695 5700 5705 5711 5716 5719 5721 5725 5728 5731 5734 5737 5739 5741 5742 5744 5746 5747 5749 5750 5751 5752 5754 5754 5755 5755 5755 5756 5758 5760 5761 5761 5761 5761 5761 5762 5762 5761 5761 5760 5759 5758 5757 5755 5753
5670 5675 5680 5684 5689 5694 5699 5704 5709 5711 5714 5718 5721 5723 5726 5728 5731 5732 5734 5735 5737 5738 5739 5740 5741 5742 5743 5744 5745 5746 5746 5747 5749 5750 5751 5751 5751 5752 5752 5753 5753 5753 5753 5752 5751 5750 5748 5747 5745
5665 5670 5674 5679 5683 5688 5692 5696 5704 5705 5707 5710 5713 5715 5718 5720 5722 5724 5725 5726 5727 5728 5729 5730 5731 5731 5732 5733 5734 5735 5736 5738 5739 5739 5740 5741 5742 5742 5743 5743 5744 5744 5744 5743 5743 5741 5740 5738 5736
5660 5665 5670 5674 5678 5684 5687 5690 5696 5699 5701 5703 5706 5708 5710 5712 5713 5715 5716 5716 5717 5717 5718 5718 5718 5719 5719 5720 5721 5722 5724 5725 5727 5728 5729 5730 5731 5732 5733 5734 5734 5735 5735 5734 5733 5732 5731 5729 5727
5657 5662 5666 5669 5673 5679 5682 5685 5689 5692 5694 5696 5699 5700 5702 5703 5704 5705 5706 5706 5706 5705 5705 5704 5705 5705 5705 5706 5707 5708 5710 5712 5714 5715 5717 5719 5720 5722 5723 5724 5725 5725 5725 5725 5724 5723 5722 5720 5718
5654 5658 5663 5667 5670 5674 5677 5680 5683 5685 5687 5689 5691 5692 5693 5694 5694 5695 5694 5694 5693 5692 5691 5690 5689 5690 5690 5690 5692 5694 5696 5698 5700 5702 5704 5707 5709 5711 5712 5714 5714 5715 5715 5715 5715 5714 5712 5710 5708
5651 5655 5659 5663 5666 5669 5672 5675 5677 5678 5679 5681 5682 5683 5684 5684 5684 5683 5682 5680 5678 5677 5675 5674 5674 5674 5674 5675 5676 5678 5681 5683 5686 5688 5691 5694 5697 5700 5702 5703 5704 5705 5706 5705 5705 5704 5703 5701 5698
5648 5652 5656 5659 5661 5665 5668 5670 5671 5671 5672 5673 5674 5674 5674 5673 5672 5670 5669 5667 5664 5662 5660 5658 5657 5657 5657 5658 5660 5663 5666 5669 5672 5675 5678 5682 5685 5688 5690 5693 5694 5695 5696 5696 5695 5694 5693 5691 5688
5646 5649 5651 5654 5657 5660 5662 5666 5665 5664 5665 5665 5665 5664 5663 5662 5661 5659 5656 5653 5650 5647 5643 5641 5639 5639 5639 5641 5643 5647 5651 5654 5658 5662 5665 5669 5673 5676 5680 5682 5684 5686 5686 5686 5686 5685 5683 5681 5678
5642 5645 5648 5651 5653 5654 5656 5661 5658 5657 5657 5656 5656 5655 5654 5652 5649 5647 5643 5640 5635 5631 5627 5623 5621 5620 5620 5622 5626 5631 5635 5641 5645 5649 5653 5658 5662 5666 5670 5673 5675 5676 5677 5677 5677 5675 5673 5671 5668